Wilmington, NC

5:51 AM EDT on May 25, 2017 (GMT -0400)
Wilmington International

Weather History for KILM - March, 2012

Change the Weather History Date:

Saturday, March 10, 2012

  Actual Average Record
Temperature  
Mean Temperature 48 °F 54 °F  
Max Temperature 59 °F 65 °F 88 °F (1974)
Min Temperature 37 °F 42 °F 21 °F (1932)
Degree Days  
Heating Degree Days 17 12  
Month to date heating degree days 100 129  
Since 1 July heating degree days 1670 2058  
Cooling Degree Days 0 0  
Month to date cooling degree days 7 0  
Year to date cooling degree days 13 5  
Moisture  
Dew Point 37 °F    
Average Humidity 70    
Maximum Humidity 100    
Minimum Humidity 40    
Precipitation  
Precipitation 0.00 in 0.14 in 5.12 in (1936)
Month to date precipitation 2.05 1.40  
Year to date precipitation 5.98 8.78  
Snow  
Snow 0.00 in 0.00 in - ()
Month to date snowfall 0.0 0.0  
Since 1 July snowfall T 1.5  
Snow Depth 0.00 in    
Sea Level Pressure  
Sea Level Pressure 30.42 in    
Wind  
Wind Speed 7 mph (NE)    
Max Wind Speed 17 mph    
Max Gust Speed 28 mph    
Visibility 10 miles    
Events      
T = Trace of Precipitation, MM = Missing Value Source: NWS Daily Summary

Daily Weather History Graph

Daily Weather History Graph

Search for Another Location

Airport or City:

Trip Planner

Search our weather history database for the weather conditions in past years. The results will help you decide how hot, cold, wet, or windy it might be!

Date:

Astronomy

Mar. 10, 2012 Rise Set
Actual Time 6:28 AM EST 6:15 PM EST
Civil Twilight 6:03 AM EST 6:40 PM EST
Nautical Twilight 5:34 AM EST 7:09 PM EST
Astronomical Twilight 5:04 AM EST 7:39 PM EST
Moon 9:14 PM EST (3/10) 7:31 AM EST (3/10)
Length of Visible Light 12h 37m
Length of Day
11h 47m
Waning Gibbous, 93% of the Moon is Illuminated
Mar 10
Waning Gibbous
Mar 14
Last Quarter
Mar 22
New
Mar 30
First Quarter
Apr 6
Full

Hourly Weather History & Observations

Time (EST) Temp. Windchill Dew Point Humidity Pressure Visibility Wind Dir Wind Speed Gust Speed Precip Events Conditions
12:53 AM 42.1 °F - 39.9 °F 92% 30.30 in 10.0 mi Calm Calm - N/A   Clear
1:53 AM 41.0 °F - 39.0 °F 93% 30.30 in 10.0 mi Calm Calm - N/A   Clear
2:53 AM 39.0 °F - 37.0 °F 93% 30.30 in 10.0 mi Calm Calm - N/A   Clear
3:53 AM 39.0 °F 36.8 °F 37.0 °F 93% 30.30 in 9.0 mi North 3.5 mph - N/A   Clear
4:53 AM 39.0 °F - 37.0 °F 93% 30.32 in 8.0 mi Calm Calm - N/A   Clear
5:53 AM 37.9 °F - 37.0 °F 97% 30.36 in 7.0 mi Calm Calm - N/A   Clear
6:53 AM 37.9 °F 35.5 °F 37.0 °F 97% 30.39 in 5.0 mi NNE 3.5 mph - N/A   Clear
7:53 AM 44.1 °F 41.5 °F 39.9 °F 85% 30.41 in 8.0 mi North 4.6 mph - N/A   Clear
8:53 AM 48.9 °F - 39.0 °F 69% 30.44 in 10.0 mi NNE 15.0 mph - N/A   Clear
9:53 AM 53.1 °F - 36.0 °F 52% 30.45 in 10.0 mi NNE 9.2 mph - N/A   Clear
10:53 AM 55.9 °F - 35.1 °F 45% 30.45 in 10.0 mi NE 12.7 mph 20.7 mph N/A   Clear
11:53 AM 57.9 °F - 34.0 °F 41% 30.45 in 10.0 mi NE 8.1 mph 18.4 mph N/A   Clear
12:53 PM 57.9 °F - 37.9 °F 47% 30.44 in 10.0 mi ENE 12.7 mph - N/A   Clear
1:53 PM 57.9 °F - 37.9 °F 47% 30.44 in 10.0 mi ENE 9.2 mph 18.4 mph N/A   Partly Cloudy
2:53 PM 59.0 °F - 37.9 °F 46% 30.44 in 10.0 mi East 9.2 mph 17.3 mph N/A   Clear
3:53 PM 57.0 °F - 36.0 °F 45% 30.44 in 10.0 mi East 6.9 mph - N/A   Clear
4:53 PM 55.9 °F - 36.0 °F 47% 30.45 in 10.0 mi East 10.4 mph 16.1 mph N/A   Clear
5:53 PM 54.0 °F - 37.9 °F 55% 30.46 in 10.0 mi East 6.9 mph - N/A   Clear
6:53 PM 50.0 °F - 39.0 °F 66% 30.48 in 10.0 mi ENE 5.8 mph - N/A   Clear
7:53 PM 50.0 °F - 37.9 °F 63% 30.49 in 10.0 mi ENE 8.1 mph - N/A   Clear
8:53 PM 48.9 °F - 37.9 °F 66% 30.51 in 10.0 mi ENE 9.2 mph - N/A   Clear
9:53 PM 46.9 °F - 37.0 °F 68% 30.52 in 10.0 mi ENE 8.1 mph - N/A   Clear
10:53 PM 43.0 °F 39.5 °F 37.0 °F 80% 30.53 in 10.0 mi NNE 5.8 mph - N/A   Clear
11:53 PM 41.0 °F 35.8 °F 36.0 °F 82% 30.53 in 10.0 mi NNE 8.1 mph - N/A   Clear